Time,TemperatureF,DewpointF,PressureIn,WindDirection,WindDirectionDegrees,WindSpeedMPH,WindSpeedGustMPH,Humidity,HourlyPrecipIn,Conditions,Clouds,dailyrainin,SoftwareType,DateUTC
2013-08-12 00:11:00,53.6,53.0,29.98,SSE,163,0.0,0.0,97,0.00,,,0.00,weatherlink.com 1.10,2013-08-12 04:11:00,
2013-08-12 00:27:00,53.2,52.0,29.98,SSE,163,0.0,0.0,97,0.00,,,0.00,weatherlink.com 1.10,2013-08-12 04:27:00,
2013-08-12 00:43:00,52.8,52.0,29.98,SSE,163,0.0,0.0,97,0.00,,,0.00,weatherlink.com 1.10,2013-08-12 04:43:00,
2013-08-12 00:59:00,52.7,52.0,29.98,SSE,163,0.0,0.0,97,0.00,,,0.00,weatherlink.com 1.10,2013-08-12 04:59:00,
2013-08-12 01:16:00,51.7,51.0,29.98,SSE,163,0.0,0.0,97,0.00,,,0.00,weatherlink.com 1.10,2013-08-12 05:16:00,
2013-08-12 01:31:00,51.8,51.0,29.98,SSE,163,0.0,0.0,98,0.00,,,0.00,weatherlink.com 1.10,2013-08-12 05:31:00,
2013-08-12 01:47:00,51.2,50.0,29.97,SSE,163,0.0,0.0,97,0.00,,,0.00,weatherlink.com 1.10,2013-08-12 05:47:00,
2013-08-12 02:04:00,50.6,50.0,29.97,SSE,163,0.0,0.0,98,0.00,,,0.00,weatherlink.com 1.10,2013-08-12 06:04:00,
2013-08-12 02:18:00,50.9,50.0,29.97,SSE,163,0.0,0.0,98,0.00,,,0.00,weatherlink.com 1.10,2013-08-12 06:18:00,
2013-08-12 02:33:00,50.7,50.0,29.96,SSE,163,0.0,0.0,98,0.00,,,0.00,weatherlink.com 1.10,2013-08-12 06:33:00,
2013-08-12 02:47:00,50.9,50.0,29.96,SSE,163,0.0,0.0,98,0.00,,,0.00,weatherlink.com 1.10,2013-08-12 06:47:00,
2013-08-12 03:02:00,51.2,51.0,29.96,SSE,163,0.0,0.0,98,0.00,,,0.00,weatherlink.com 1.10,2013-08-12 07:02:00,
2013-08-12 03:16:00,50.6,50.0,29.95,SSE,163,0.0,0.0,98,0.00,,,0.00,weatherlink.com 1.10,2013-08-12 07:16:00,
2013-08-12 03:30:00,52.3,52.0,29.95,SSE,163,0.0,0.0,98,0.00,,,0.00,weatherlink.com 1.10,2013-08-12 07:30:00,
2013-08-12 03:45:00,53.4,53.0,29.95,SSE,163,0.0,0.0,98,0.00,,,0.00,weatherlink.com 1.10,2013-08-12 07:45:00,
2013-08-12 03:59:00,53.6,53.0,29.95,SSE,163,0.0,0.0,98,0.00,,,0.00,weatherlink.com 1.10,2013-08-12 07:59:00,
2013-08-12 04:13:00,53.7,53.0,29.95,SSE,163,0.0,0.0,98,0.00,,,0.00,weatherlink.com 1.10,2013-08-12 08:13:00,
2013-08-12 04:28:00,54.2,54.0,29.94,SSE,163,0.0,0.0,98,0.00,,,0.00,weatherlink.com 1.10,2013-08-12 08:28:00,
2013-08-12 04:42:00,53.8,53.0,29.94,SSE,163,0.0,0.0,98,0.00,,,0.00,weatherlink.com 1.10,2013-08-12 08:42:00,
2013-08-12 04:57:00,53.3,53.0,29.94,SSE,163,0.0,0.0,98,0.00,,,0.00,weatherlink.com 1.10,2013-08-12 08:57:00,
2013-08-12 05:11:00,53.3,53.0,29.94,SSE,163,0.0,0.0,98,0.00,,,0.00,weatherlink.com 1.10,2013-08-12 09:11:00,
2013-08-12 05:26:00,52.9,52.0,29.93,SSE,163,0.0,0.0,98,0.00,,,0.00,weatherlink.com 1.10,2013-08-12 09:26:00,
2013-08-12 05:40:00,53.7,53.0,29.94,NNE,31,1.0,4.0,98,0.00,,,0.00,weatherlink.com 1.10,2013-08-12 09:40:00,
2013-08-12 05:55:00,54.4,54.0,29.93,NE,34,0.0,2.0,99,0.00,,,0.00,weatherlink.com 1.10,2013-08-12 09:55:00,
2013-08-12 06:09:00,55.0,55.0,29.94,NW,304,0.0,0.0,99,0.00,,,0.00,weatherlink.com 1.10,2013-08-12 10:09:00,
2013-08-12 06:24:00,55.6,55.0,29.93,NW,317,0.0,0.0,99,0.00,,,0.00,weatherlink.com 1.10,2013-08-12 10:24:00,
2013-08-12 06:38:00,55.7,55.0,29.93,North,6,0.0,1.0,99,0.00,,,0.00,weatherlink.com 1.10,2013-08-12 10:38:00,
2013-08-12 06:53:00,55.9,55.0,29.93,North,6,0.0,0.0,98,0.01,,,0.01,weatherlink.com 1.10,2013-08-12 10:53:00,
2013-08-12 07:07:00,55.9,55.0,29.92,East,85,0.0,1.0,98,0.04,,,0.04,weatherlink.com 1.10,2013-08-12 11:07:00,
2013-08-12 07:21:00,56.4,56.0,29.93,East,80,0.0,2.0,98,0.04,,,0.04,weatherlink.com 1.10,2013-08-12 11:21:00,
2013-08-12 07:36:00,56.5,56.0,29.92,East,80,0.0,0.0,98,0.04,,,0.04,weatherlink.com 1.10,2013-08-12 11:36:00,
2013-08-12 07:50:00,56.3,56.0,29.92,East,81,0.0,1.0,98,0.03,,,0.04,weatherlink.com 1.10,2013-08-12 11:50:00,
2013-08-12 08:05:00,56.3,56.0,29.92,East,81,0.0,1.0,98,0.01,,,0.04,weatherlink.com 1.10,2013-08-12 12:05:00,
2013-08-12 08:19:00,56.8,56.0,29.91,East,82,0.0,1.0,98,0.00,,,0.04,weatherlink.com 1.10,2013-08-12 12:19:00,
2013-08-12 08:34:00,57.8,58.0,29.91,East,82,0.0,0.0,99,0.00,,,0.04,weatherlink.com 1.10,2013-08-12 12:34:00,
2013-08-12 08:48:00,59.3,59.0,29.90,South,169,0.0,1.0,99,0.00,,,0.04,weatherlink.com 1.10,2013-08-12 12:48:00,
2013-08-12 09:03:00,60.9,60.0,29.90,SSE,155,0.0,0.0,98,0.00,,,0.04,weatherlink.com 1.10,2013-08-12 13:03:00,
2013-08-12 09:17:00,62.3,61.0,29.90,South,186,0.0,0.0,94,0.00,,,0.04,weatherlink.com 1.10,2013-08-12 13:17:00,
2013-08-12 09:32:00,64.1,61.0,29.90,SSE,156,1.0,0.0,91,0.00,,,0.04,weatherlink.com 1.10,2013-08-12 13:32:00,
2013-08-12 09:46:00,66.1,61.0,29.90,SW,223,0.0,1.0,85,0.00,,,0.04,weatherlink.com 1.10,2013-08-12 13:46:00,
2013-08-12 10:00:00,67.8,61.0,29.89,SW,217,2.0,2.0,80,0.00,,,0.04,weatherlink.com 1.10,2013-08-12 14:00:00,
2013-08-12 10:15:00,69.5,63.0,29.89,WSW,251,0.0,2.0,79,0.00,,,0.04,weatherlink.com 1.10,2013-08-12 14:15:00,
2013-08-12 10:29:00,70.4,62.0,29.89,WSW,239,0.0,3.0,76,0.00,,,0.04,weatherlink.com 1.10,2013-08-12 14:29:00,
2013-08-12 10:44:00,71.4,63.0,29.89,WSW,253,1.0,3.0,74,0.00,,,0.04,weatherlink.com 1.10,2013-08-12 14:44:00,
2013-08-12 10:58:00,69.7,59.0,29.88,NNW,338,1.0,4.0,70,0.00,,,0.04,weatherlink.com 1.10,2013-08-12 14:58:00,
2013-08-12 11:13:00,70.7,60.0,29.88,NE,38,5.0,9.0,69,0.00,,,0.04,weatherlink.com 1.10,2013-08-12 15:13:00,
2013-08-12 11:27:00,70.8,60.0,29.89,WSW,244,1.0,9.0,69,0.00,,,0.04,weatherlink.com 1.10,2013-08-12 15:27:00,
2013-08-12 11:42:00,70.7,60.0,29.88,NNW,329,3.0,4.0,69,0.00,,,0.04,weatherlink.com 1.10,2013-08-12 15:42:00,
2013-08-12 11:56:00,71.9,60.0,29.88,North,353,2.0,9.0,66,0.00,,,0.04,weatherlink.com 1.10,2013-08-12 15:56:00,
2013-08-12 12:11:00,73.1,61.0,29.88,NW,306,1.0,6.0,66,0.00,,,0.04,weatherlink.com 1.10,2013-08-12 16:11:00,
2013-08-12 12:25:00,73.4,59.0,29.87,NNE,30,6.0,7.0,61,0.00,,,0.04,weatherlink.com 1.10,2013-08-12 16:25:00,
2013-08-12 12:40:00,73.8,59.0,29.87,NNE,27,3.0,6.0,60,0.00,,,0.04,weatherlink.com 1.10,2013-08-12 16:40:00,
2013-08-12 12:54:00,73.8,59.0,29.87,NW,325,2.0,9.0,60,0.00,,,0.04,weatherlink.com 1.10,2013-08-12 16:54:00,
2013-08-12 13:09:00,72.3,57.0,29.87,North,357,2.0,11.0,59,0.00,,,0.04,weatherlink.com 1.10,2013-08-12 17:09:00,
2013-08-12 13:23:00,73.4,59.0,29.87,North,351,5.0,10.0,61,0.00,,,0.04,weatherlink.com 1.10,2013-08-12 17:23:00,
2013-08-12 13:38:00,72.5,60.0,29.87,East,89,0.0,9.0,66,0.00,,,0.04,weatherlink.com 1.10,2013-08-12 17:38:00,
2013-08-12 13:52:00,71.1,61.0,29.87,NW,314,4.0,10.0,70,0.00,,,0.04,weatherlink.com 1.10,2013-08-12 17:52:00,
2013-08-12 14:06:00,71.3,61.0,29.87,North,11,2.0,14.0,70,0.00,,,0.04,weatherlink.com 1.10,2013-08-12 18:06:00,
2013-08-12 14:21:00,67.9,60.0,29.88,NW,317,2.0,7.0,76,0.00,,,0.04,weatherlink.com 1.10,2013-08-12 18:21:00,
2013-08-12 14:35:00,66.5,60.0,29.89,NNW,335,3.0,7.0,79,0.00,,,0.04,weatherlink.com 1.10,2013-08-12 18:35:00,
2013-08-12 14:49:00,63.6,60.0,29.90,NNE,14,3.0,8.0,89,0.02,,,0.06,weatherlink.com 1.10,2013-08-12 18:49:00,
2013-08-12 15:04:00,61.5,58.0,29.91,North,8,3.0,14.0,87,0.02,,,0.06,weatherlink.com 1.10,2013-08-12 19:04:00,
2013-08-12 15:19:00,61.7,57.0,29.91,NNW,332,2.0,9.0,86,0.02,,,0.06,weatherlink.com 1.10,2013-08-12 19:19:00,
2013-08-12 15:35:00,59.9,56.0,29.91,North,359,2.0,8.0,88,0.02,,,0.06,weatherlink.com 1.10,2013-08-12 19:35:00,
2013-08-12 15:49:00,58.4,55.0,29.92,NNW,331,2.0,15.0,89,0.00,,,0.06,weatherlink.com 1.10,2013-08-12 19:49:00,
2013-08-12 16:05:00,57.4,55.0,29.93,NNW,328,2.0,16.0,91,0.00,,,0.06,weatherlink.com 1.10,2013-08-12 20:05:00,
2013-08-12 16:19:00,56.7,54.0,29.93,NE,46,10.0,15.0,91,0.00,,,0.06,weatherlink.com 1.10,2013-08-12 20:19:00,
2013-08-12 16:34:00,56.3,54.0,29.93,NNE,21,6.0,15.0,91,0.00,,,0.06,weatherlink.com 1.10,2013-08-12 20:34:00,
2013-08-12 16:49:00,57.8,54.0,29.93,NNE,24,9.0,13.0,87,0.00,,,0.06,weatherlink.com 1.10,2013-08-12 20:49:00,
2013-08-12 17:04:00,58.0,54.0,29.94,NNW,342,4.0,13.0,86,0.00,,,0.06,weatherlink.com 1.10,2013-08-12 21:04:00,
2013-08-12 17:19:00,55.7,53.0,29.95,NE,41,6.0,15.0,89,0.00,,,0.06,weatherlink.com 1.10,2013-08-12 21:19:00,
2013-08-12 17:34:00,55.3,52.0,29.95,NNW,347,5.0,18.0,88,0.00,,,0.06,weatherlink.com 1.10,2013-08-12 21:34:00,
2013-08-12 17:49:00,54.9,51.0,29.96,NW,324,6.0,12.0,87,0.00,,,0.06,weatherlink.com 1.10,2013-08-12 21:49:00,
2013-08-12 18:04:00,56.1,52.0,29.96,NNE,21,3.0,15.0,85,0.00,,,0.06,weatherlink.com 1.10,2013-08-12 22:04:00,
2013-08-12 18:19:00,56.8,51.0,29.96,North,349,6.0,16.0,82,0.00,,,0.06,weatherlink.com 1.10,2013-08-12 22:19:00,
2013-08-12 18:34:00,56.6,50.0,29.97,North,357,8.0,22.0,78,0.00,,,0.06,weatherlink.com 1.10,2013-08-12 22:34:00,
2013-08-12 18:49:00,55.3,49.0,29.97,North,354,5.0,19.0,79,0.00,,,0.06,weatherlink.com 1.10,2013-08-12 22:49:00,
2013-08-12 19:04:00,55.5,49.0,29.97,North,360,4.0,15.0,79,0.00,,,0.06,weatherlink.com 1.10,2013-08-12 23:04:00,
2013-08-12 19:18:00,54.9,49.0,29.97,NNW,336,5.0,15.0,79,0.00,,,0.06,weatherlink.com 1.10,2013-08-12 23:18:00,
2013-08-12 19:34:00,54.1,48.0,29.97,NW,323,4.0,18.0,81,0.00,,,0.06,weatherlink.com 1.10,2013-08-12 23:34:00,
2013-08-12 19:49:00,53.6,48.0,29.98,NW,326,2.0,16.0,82,0.00,,,0.06,weatherlink.com 1.10,2013-08-12 23:49:00,
2013-08-12 20:04:00,53.2,48.0,29.98,NNW,333,1.0,13.0,83,0.00,,,0.06,weatherlink.com 1.10,2013-08-13 00:04:00,
2013-08-12 20:19:00,52.8,48.0,29.98,NNE,25,4.0,17.0,83,0.00,,,0.06,weatherlink.com 1.10,2013-08-13 00:19:00,
2013-08-12 20:33:00,52.3,48.0,29.98,NE,38,3.0,14.0,84,0.00,,,0.06,weatherlink.com 1.10,2013-08-13 00:33:00,
2013-08-12 20:47:00,51.8,47.0,29.98,NNW,345,3.0,10.0,85,0.00,,,0.06,weatherlink.com 1.10,2013-08-13 00:47:00,
2013-08-12 21:02:00,51.2,47.0,29.98,NNW,336,2.0,9.0,86,0.00,,,0.06,weatherlink.com 1.10,2013-08-13 01:02:00,
2013-08-12 21:16:00,50.6,47.0,29.98,North,360,2.0,6.0,88,0.00,,,0.06,weatherlink.com 1.10,2013-08-13 01:16:00,
2013-08-12 21:31:00,50.2,47.0,29.98,NNE,31,1.0,7.0,89,0.00,,,0.06,weatherlink.com 1.10,2013-08-13 01:31:00,
2013-08-12 21:46:00,49.8,47.0,29.99,North,356,1.0,4.0,89,0.00,,,0.06,weatherlink.com 1.10,2013-08-13 01:46:00,
2013-08-12 22:00:00,49.5,47.0,29.99,NNE,28,0.0,5.0,90,0.00,,,0.06,weatherlink.com 1.10,2013-08-13 02:00:00,
2013-08-12 22:14:00,49.1,46.0,30.00,North,11,0.0,5.0,90,0.00,,,0.06,weatherlink.com 1.10,2013-08-13 02:14:00,
2013-08-12 22:29:00,48.5,46.0,30.00,NNE,16,0.0,2.0,91,0.00,,,0.06,weatherlink.com 1.10,2013-08-13 02:29:00,
2013-08-12 22:43:00,47.7,45.0,30.00,NNE,18,0.0,1.0,92,0.00,,,0.06,weatherlink.com 1.10,2013-08-13 02:43:00,
2013-08-12 22:58:00,47.0,45.0,30.00,NE,37,0.0,0.0,94,0.00,,,0.06,weatherlink.com 1.10,2013-08-13 02:58:00,
2013-08-12 23:12:00,46.6,45.0,30.00,NE,37,0.0,1.0,94,0.00,,,0.06,weatherlink.com 1.10,2013-08-13 03:12:00,
2013-08-12 23:27:00,46.1,45.0,30.01,NE,34,0.0,1.0,95,0.00,,,0.06,weatherlink.com 1.10,2013-08-13 03:27:00,
2013-08-12 23:41:00,46.0,45.0,30.01,NE,34,0.0,1.0,96,0.00,,,0.06,weatherlink.com 1.10,2013-08-13 03:41:00,
2013-08-12 23:56:00,46.1,45.0,30.01,NE,34,0.0,1.0,96,0.00,,,0.06,weatherlink.com 1.10,2013-08-13 03:56:00,